Location: *
(35.8942°N, 23.3025°E)
Time: 23:39:53
(UTC+00:00)

Cosmos 1743 - Pass Details

Date: 21 September 2021
Orbit: 509 x 525 km, 82.6° (Epoch: 22 October)

Event Time Altitude Azimuth Distance (km) Brightness Sun altitude
Rises 03:33:33 0° 355° (N) 2,664 6.4 -9.0°
Reaches altitude 10° 03:35:43 10° 358° (N) 1,769 5.5 -8.6°
Maximum altitude 03:39:35 72° 82° (E) 552 3.0 -7.8°
Drops below altitude 10° 03:43:25 10° 168° (SSE) 1,749 5.5 -7.0°
Sets 03:45:32 0° 170° (S) 2,629 6.4 -6.6°
